sat.trackr.live / text

‹ back to catalog

STARLINK-35241

NORAD 65515 · 2025-198Z

PAYLOAD ACTIVE UNKNOWN

§ Identity

Operator
Country
US
Launch date
2025-09-05
Launch site
AFETR
Launch vehicle
Mass (kg)
RCS (m²)

Purposes: comms

External: N2YO · Heavens-Above · Gunter

§ Orbital elements

Epoch: 2026-09-20T05:17:32.641152Z

Period
93.85 min
Inclination
53.1608°
Eccentricity
0.0001504
Mean motion
15.34398937 rev/d
Perigee alt
461.7 km
Apogee alt
463.7 km
Semi-major
6,840.8 km
B*
3.4360e-4
RAAN
85.2851°
Arg perigee
87.0064°
Mean anomaly
273.1111°
Rev number
5,843

§ Raw data

STARLINK-352411 65515U 25198Z   26263.22051668  .00011250  00000+0  34360-3 0  99932 65515  53.1608  85.2851 0001504  87.0064 273.1111 15.34398937 58439

JSON: /api/v1/satellites/65515 · /tle

For live sub-satellite position, see the globe view (requires WebGL).

§ Visibility from observer

Set your observer location to see the next 7 days of passes ≥ 10°. The values pass through the URL so the page stays shareable.

No JS? Fill the form by hand. The geolocation button needs JavaScript.